Tracking 30923 objects as of 1-Jul-2025
HD Live streaming from Space Station
objects crossing your sky now

SL-16 DEB

Track SL-16 DEB now!
10-day predictions


NORAD ID: 22407
Int'l Code: 1992-093CY
Perigee: 825.9 km
Apogee: 1,089.0 km
Inclination: 70.9 °
Period: 104.1 minutes
Semi major axis: 7328 km
RCS: 0.0422 m2 (small)
Launch date: December 25, 1992
Source: Commonwealth of Independent States (former USSR) (CIS)
Launch site: TYURATAM MISSILE AND SPACE COMPLEX (TTMTR)

Note: This is SATELLITE DEBRIS
Your satellite tracking list
CZ-4 DEB
Track 1 satellite(s)




NASA's NSSDC Master Catalog

Two Line Element Set (TLE):
1 22407U 92093CY  25181.55510853  .00000436  00000-0  38283-3 0  9997
2 22407  70.8609 287.5432 0179529 183.6281 176.3538 13.83845077635676
Source of the keplerian elements: AFSPC